FW8740 Weather Reports


time (UTC)temp
C
wind
direction
speed
KPH
gust
KPH
rain 1hr
cm
rain 24hr
cm
rain mn
cm
humidity
%
barometer
mb
20260504151016 17 274 8.0 20.9 0.00 0.00 0.00 41 1015.4
20260504150514 17 96 3.2 11.3 0.00 0.00 0.00 43 1015.5
20260504140939 16 123 1.6 14.5 0.00 0.00 0.00 46 1015.8
20260504140436 15 98 3.2 8.0 0.00 0.00 0.00 46 1015.8
20260504130400 13 305 4.8 8.0 0.00 0.00 0.00 51 1016.7
20260504110248 10 270 3.2 9.7 0.00 0.00 0.00 59 1016.6
20260504100211 9 67 1.6 4.8 0.00 0.00 0.00 58 1016.2
20260504090134 9 46 3.2 9.7 0.00 0.00 0.00 58 1016.1
20260504081604 8 77 1.6 3.2 0.00 0.00 0.00 60 1016.0
20260504081100 8 90 1.6 3.2 0.00 0.00 0.00 59 1015.9
20260504080557 8 26 3.2 11.3 0.00 0.00 0.00 59 1016.0
20260504050409 5 86 1.6 1.6 0.00 0.00 0.00 71 1015.2
20260504045906 5 101 0.0 0.0 0.00 0.00 0.00 71 1015.1
20260504045402 5 99 0.0 0.0 0.00 0.00 0.00 70 1015.4
20260504044859 5 103 0.0 0.0 0.00 0.00 0.00 70 1015.0
20260504044356 5 98 0.0 0.0 0.00 0.00 0.00 70 1015.1
20260504043854 5 95 0.0 1.6 0.00 0.00 0.00 70 1015.3
20260504043350 6 97 0.0 1.6 0.00 0.00 0.00 70 1015.1
20260504042848 6 96 0.0 1.6 0.00 0.00 0.00 71 1015.0
20260504042344 5 102 0.0 0.0 0.00 0.00 0.00 71 1015.0
20260504041840 5 104 0.0 0.0 0.00 0.00 0.00 72 1014.9
20260504041337 5 103 0.0 0.0 0.00 0.00 0.00 72 1014.8
20260504040833 5 102 0.0 0.0 0.00 0.00 0.00 72 1015.0
20260504040331 5 101 0.0 0.0 0.00 0.00 0.00 72 1014.9
20260504035826 5 100 0.0 0.0 0.00 0.00 0.00 72 1015.1
20260504035324 5 97 0.0 0.0 0.00 0.00 0.00 72 1014.9
20260504034821 6 94 0.0 1.6 0.00 0.00 0.00 71 1015.0
20260504034319 6 111 0.0 0.0 0.00 0.00 0.00 71 1015.1
20260504033815 6 122 0.0 1.6 0.00 0.00 0.00 71 1014.8
20260504033313 6 101 0.0 0.0 0.00 0.00 0.00 70 1015.0
20260504032809 6 100 0.0 0.0 0.00 0.00 0.00 69 1015.0
20260504032307 6 109 0.0 0.0 0.00 0.00 0.00 69 1015.0
20260504031803 6 107 0.0 0.0 0.00 0.00 0.00 68 1014.9
20260504031301 6 105 0.0 0.0 0.00 0.00 0.00 67 1014.9
20260504030757 6 104 0.0 0.0 0.00 0.00 0.00 67 1014.8
20260504030254 6 109 0.0 0.0 0.00 0.00 0.00 66 1014.7
20260504025750 6 109 0.0 0.0 0.00 0.00 0.00 65 1014.9
20260504025247 6 105 0.0 0.0 0.00 0.00 0.00 64 1015.0
20260504024744 7 104 0.0 0.0 0.00 0.00 0.00 64 1015.0
20260504024241 7 104 0.0 0.0 0.00 0.00 0.00 63 1015.0
20260504023738 7 112 0.0 0.0 0.00 0.00 0.00 62 1015.0
20260504023234 7 118 0.0 1.6 0.00 0.00 0.00 61 1015.2
20260504022730 7 127 0.0 1.6 0.00 0.00 0.00 60 1015.1
20260504022226 7 126 0.0 1.6 0.00 0.00 0.00 60 1015.0
20260504021724 7 117 0.0 0.0 0.00 0.00 0.00 60 1015.2
20260504021221 7 126 0.0 0.0 0.00 0.00 0.00 58 1015.0
20260504020717 7 112 0.0 0.0 0.00 0.00 0.00 57 1014.9
20260504020214 8 115 0.0 0.0 0.00 0.00 0.00 55 1014.9
20260504015710 8 116 0.0 0.0 0.00 0.00 0.00 55 1014.9
20260504015207 8 115 0.0 0.0 0.00 0.00 0.00 55 1015.0
20260504014702 8 117 0.0 0.0 0.00 0.00 0.00 54 1014.9
20260504014159 8 110 0.0 0.0 0.00 0.00 0.00 54 1015.0
20260504013657 8 110 0.0 0.0 0.00 0.00 0.00 54 1014.7
20260504013154 8 109 0.0 0.0 0.00 0.00 0.00 54 1014.8
20260504012651 8 110 0.0 0.0 0.00 0.00 0.00 54 1014.8
20260504012149 9 108 0.0 0.0 0.00 0.00 0.00 53 1014.9
20260504011646 9 102 0.0 1.6 0.00 0.00 0.00 52 1014.6
20260504011142 9 102 0.0 0.0 0.00 0.00 0.00 53 1014.6
20260504010638 9 93 0.0 1.6 0.00 0.00 0.00 52 1014.4
20260504010134 10 104 0.0 0.0 0.00 0.00 0.00 50 1014.4
20260504005631 10 104 0.0 0.0 0.00 0.00 0.00 47 1014.3
20260504005128 10 97 0.0 1.6 0.00 0.00 0.00 46 1014.3
20260504004626 10 100 0.0 1.6 0.00 0.00 0.00 47 1014.4
20260504004123 10 100 0.0 1.6 0.00 0.00 0.00 47 1014.3
20260504003619 10 112 0.0 0.0 0.00 0.00 0.00 47 1014.1
20260504003116 11 113 0.0 0.0 0.00 0.00 0.00 46 1014.1
20260504002613 11 105 0.0 1.6 0.00 0.00 0.00 44 1013.8
20260504002110 11 99 0.0 1.6 0.00 0.00 0.00 44 1013.8
20260504001608 11 146 1.6 1.6 0.00 0.00 0.00 42 1013.7
20260504001103 11 103 0.0 1.6 0.00 0.00 0.00 42 1013.8
20260504000601 12 105 0.0 1.6 0.00 0.00 0.00 41 1013.7
20260504000058 12 103 0.0 1.6 0.00 0.00 0.00 41 1013.6
20260503235556 12 105 0.0 1.6 0.00 0.00 0.00 40 1013.5
20260503235053 12 99 1.6 1.6 0.00 0.00 0.00 40 1013.3
20260503234551 12 97 1.6 3.2 0.00 0.00 0.00 39 1013.2
20260503234049 12 86 1.6 9.7 0.00 0.00 0.00 39 1013.6
20260503233545 12 94 1.6 12.9 0.00 0.00 0.00 38 1013.4
20260503233041 12 94 0.0 3.2 0.00 0.00 0.00 38 1013.1
20260503232538 13 251 3.2 8.0 0.00 0.00 0.00 38 1013.1
20260503232036 13 10 1.6 3.2 0.00 0.00 0.00 37 1013.0
20260503231533 13 30 4.8 9.7 0.00 0.00 0.00 36 1013.3
20260503231030 13 62 3.2 9.7 0.00 0.00 0.00 37 1013.1
20260503230526 13 67 1.6 8.0 0.00 0.00 0.00 36 1013.0
20260503230024 13 53 4.8 4.8 0.00 0.00 0.00 36 1012.9
20260503225521 13 54 4.8 4.8 0.00 0.00 0.00 37 1012.8
20260503225016 13 85 1.6 3.2 0.00 0.00 0.00 36 1012.9
20260503224514 13 82 4.8 8.0 0.00 0.00 0.00 35 1012.7
20260503224011 13 47 1.6 4.8 0.00 0.00 0.00 36 1012.7
20260503223509 13 65 1.6 4.8 0.00 0.00 0.00 35 1012.6
20260503223004 13 50 3.2 3.2 0.00 0.00 0.00 35 1012.8
20260503222503 13 86 1.6 8.0 0.00 0.00 0.00 34 1012.7
20260503222000 13 182 1.6 4.8 0.00 0.00 0.00 34 1013.0
20260503221458 13 49 3.2 4.8 0.00 0.00 0.00 34 1012.6
20260503220955 13 105 3.2 8.0 0.00 0.00 0.00 34 1012.7
20260503220452 13 60 1.6 9.7 0.00 0.00 0.00 33 1012.9
20260503215949 13 92 1.6 8.0 0.00 0.00 0.00 34 1012.8
20260503215445 14 351 3.2 16.1 0.00 0.00 0.00 33 1012.9
20260503214943 15 133 4.8 8.0 0.00 0.00 0.00 34 1012.8
20260503214441 15 78 1.6 9.7 0.00 0.00 0.00 33 1012.7
20260503213938 15 35 4.8 9.7 0.00 0.00 0.00 33 1012.8
20260503213436 14 323 3.2 4.8 0.00 0.00 0.00 33 1012.8
20260503212932 14 324 6.4 20.9 0.00 0.00 0.00 33 1012.4
20260503212430 14 350 4.8 14.5 0.00 0.00 0.00 34 1012.5
20260503211927 14 349 3.2 9.7 0.00 0.00 0.00 34 1012.7
20260503211424 14 119 4.8 17.7 0.00 0.00 0.00 34 1012.5
20260503210919 14 75 4.8 8.0 0.00 0.00 0.00 34 1012.6
20260503210416 14 312 3.2 12.9 0.00 0.00 0.00 34 1012.5
20260503205910 15 331 11.3 16.1 0.00 0.00 0.00 34 1012.4
20260503205408 14 93 1.6 4.8 0.00 0.00 0.00 36 1012.3
20260503204904 14 26 4.8 9.7 0.00 0.00 0.00 35 1012.7
20260503204401 14 32 4.8 12.9 0.00 0.00 0.00 36 1012.5
20260503203859 14 0 4.8 11.3 0.00 0.00 0.00 35 1012.4
20260503203356 14 37 4.8 8.0 0.00 0.00 0.00 35 1012.8
20260503202852 13 42 11.3 14.5 0.00 0.00 0.00 35 1012.5
20260503202351 13 309 4.8 9.7 0.00 0.00 0.00 35 1012.6
20260503201849 13 337 4.8 25.7 0.00 0.00 0.00 36 1012.7
20260503201345 13 111 3.2 11.3 0.00 0.00 0.00 36 1012.7
20260503200843 13 12 6.4 12.9 0.00 0.00 0.00 37 1012.7
20260503200339 13 32 8.0 20.9 0.00 0.00 0.00 37 1012.9
20260503195836 13 310 8.0 12.9 0.00 0.00 0.00 37 1012.7
20260503195332 13 38 4.8 11.3 0.00 0.00 0.00 38 1012.8
20260503194830 14 60 4.8 9.7 0.00 0.00 0.00 38 1012.9
20260503194326 13 348 4.8 12.9 0.00 0.00 0.00 38 1012.8
20260503193822 13 301 3.2 9.7 0.00 0.00 0.00 40 1012.7
20260503193318 13 70 1.6 9.7 0.00 0.00 0.00 39 1013.0
20260503192814 13 46 4.8 11.3 0.00 0.00 0.00 41 1012.9
20260503192310 12 39 3.2 9.7 0.00 0.00 0.00 40 1013.0
20260503191806 13 320 3.2 14.5 0.00 0.00 0.00 40 1013.1
20260503191303 13 114 4.8 11.3 0.00 0.00 0.00 41 1012.9
20260503190800 12 21 4.8 8.0 0.00 0.00 0.00 42 1013.1
20260503190257 12 271 6.4 12.9 0.00 0.00 0.00 41 1013.1
20260503185754 12 334 8.0 16.1 0.00 0.00 0.00 42 1013.4
20260503185250 12 298 9.7 12.9 0.00 0.00 0.00 42 1013.5
20260503184744 13 49 6.4 14.5 0.00 0.00 0.00 42 1013.4
20260503184241 12 328 6.4 14.5 0.00 0.00 0.00 42 1013.3
20260503183737 12 40 6.4 16.1 0.00 0.00 0.00 42 1013.4
20260503183235 12 350 4.8 11.3 0.00 0.00 0.00 44 1013.4
20260503182732 12 10 9.7 14.5 0.00 0.00 0.00 43 1013.4
20260503182231 12 27 8.0 9.7 0.00 0.00 0.00 44 1013.6
20260503181728 11 107 4.8 11.3 0.00 0.00 0.00 44 1013.4
20260503181225 12 66 6.4 12.9 0.00 0.00 0.00 45 1013.6
20260503180721 12 102 4.8 17.7 0.00 0.00 0.00 43 1013.5
20260503180219 11 112 3.2 9.7 0.00 0.00 0.00 45 1013.5
20260503175716 12 86 8.0 12.9 0.00 0.00 0.00 45 1013.7
20260503175214 11 333 3.2 8.0 0.00 0.00 0.00 45 1013.6
20260503174709 11 291 4.8 11.3 0.00 0.00 0.00 45 1013.4
20260503174207 11 329 8.0 11.3 0.00 0.00 0.00 45 1013.6
20260503173707 11 39 4.8 11.3 0.00 0.00 0.00 45 1013.4
20260503173204 10 330 8.0 12.9 0.00 0.00 0.00 45 1013.7
20260503172701 11 32 4.8 12.9 0.00 0.00 0.00 44 1013.6
20260503172158 11 91 8.0 12.9 0.00 0.00 0.00 43 1013.6
20260503171654 12 38 3.2 16.1 0.00 0.00 0.00 43 1013.7
20260503171152 11 107 4.8 16.1 0.00 0.00 0.00 42 1013.4
20260503170649 11 329 6.4 11.3 0.00 0.00 0.00 43 1013.6
20260503170145 11 344 8.0 14.5 0.00 0.00 0.00 43 1013.8